Location: Eschentzwiller
(47.7125°N, 7.3981°E)
Time: 04:21:31
(UTC+00:00)

ERBS - Pass Details

Date: 27 October 2020
Orbit: 406 x 422 km, 57.0° (Epoch: 01 December)

Event Time Altitude Azimuth Distance (km) Brightness Sun altitude
Rises 18:17:16 0° 302° (WNW) 2,372 7.1 -20.2°
Reaches altitude 10° 18:19:51 10° 323° (NW) 1,511 5.6 -20.7°
Enters shadow 18:21:53 18° 359° (N) 1,135 4.4 -21.0°
